Location: Unspecified
(0.0000°N, 0.0000°E)
Time: 21:02:25
(UTC+00:00)

Envisat - Pass Details

Date: 22 December 2018
Orbit: 764 x 766 km, 98.1° (Epoch: 22 October)

Event Time Altitude Azimuth Distance (km) Brightness Sun altitude
Rises 19:02:57 0° 162° (SSE) 3,228 6.3 -14.7°
Reaches altitude 10° 19:05:17 10° 158° (SSE) 2,300 5.5 -15.2°
Maximum altitude 19:10:17 62° 78° (ENE) 858 2.9 -16.4°
Drops below altitude 10° 19:15:16 10° 358° (N) 2,291 5.2 -17.5°
Sets 19:17:35 0° 355° (N) 3,215 6.0 -18.0°
